Location: Grossmotten
(48.5500°N, 15.3833°E)
Time: 09:03:07
(UTC+00:00)

SL-4 R/B - Pass Details

Date: 15 November 2019
Orbit: 428 x 667 km, 51.6° (Epoch: 11 December)

Event Time Altitude Azimuth Distance (km) Brightness Sun altitude
Exits shadow 02:35:47 25° 66° (ENE) 1,326 4.4 -34.6°
Drops below altitude 10° 02:37:55 10° 74° (ENE) 2,094 5.8 -34.2°
Sets 02:40:18 0° 78° (ENE) 3,003 6.8 -33.8°
